When you browse on this site, cookies collect data to enhance your experience and personalize the content and advertising you see.
Visit our Privacy Policy to learn more. By continuing to use the site, you agree to this use of cookies and data.
  • en Suisse
  • Liste des pays
  • À 7 jours
  • Température de l'eau
  • Carte météo
  • Widgets météo
  • user-avatar
    Se connecter

    Météo par heure à Kalgoorlie

    Ce jour, 15 Septembre, Dimanche

    Heure Température Précipitation Vent Pression Humidité
    00:00 +21°C° 0 mm 4 m/s 733 mmHg 53%
    01:00 +20°C° 0 mm 4 m/s 733 mmHg 58%
    02:00 +19°C° 0 mm 5 m/s 732 mmHg 60%
    03:00 +17°C° 0 mm 5 m/s 733 mmHg 65%
    04:00 +17°C° 0 mm 5 m/s 733 mmHg 70%
    05:00 +16°C° 0 mm 5 m/s 733 mmHg 76%
    06:00 +17°C° 0 mm 5 m/s 733 mmHg 74%
    07:00 +17°C° 0 mm 6 m/s 733 mmHg 72%
    08:00 +19°C° 0 mm 6 m/s 734 mmHg 69%
    09:00 +21°C° 0 mm 6 m/s 734 mmHg 61%
    10:00 +23°C° 0 mm 6 m/s 734 mmHg 52%
    11:00 +26°C° 0 mm 6 m/s 733 mmHg 44%
    12:00 +27°C° 0 mm 5 m/s 733 mmHg 41%
    13:00 +28°C° 0 mm 5 m/s 732 mmHg 38%
    14:00 +29°C° 0 mm 5 m/s 732 mmHg 35%
    15:00 +28°C° 0 mm 5 m/s 732 mmHg 35%
    16:00 +28°C° 0 mm 5 m/s 732 mmHg 36%
    17:00 +28°C° 0 mm 6 m/s 732 mmHg 36%
    18:00 +24°C° 0 mm 7 m/s 733 mmHg 46%
    19:00 +22°C° 0 mm 9 m/s 733 mmHg 55%
    20:00 +18°C° 0 mm 11 m/s 734 mmHg 65%
    21:00 +17°C° 0 mm 10 m/s 734 mmHg 67%
    22:00 +14°C° 0 mm 10 m/s 734 mmHg 69%
    23:00 +13°C° 0 mm 9 m/s 734 mmHg 72%

    Demain, 16 Septembre, Lundi

    Heure Température Précipitation Vent Pression Humidité
    00:00 +13°C° 0 mm 9 m/s 734 mmHg 72%
    01:00 +12°C° 0 mm 9 m/s 734 mmHg 72%
    02:00 +11°C° 0 mm 8 m/s 734 mmHg 72%
    03:00 +11°C° 0 mm 8 m/s 735 mmHg 72%
    04:00 +11°C° 0 mm 8 m/s 735 mmHg 72%
    05:00 +11°C° 0 mm 8 m/s 735 mmHg 72%
    06:00 +11°C° 0 mm 8 m/s 735 mmHg 68%
    07:00 +12°C° 0 mm 8 m/s 735 mmHg 65%
    08:00 +13°C° 0 mm 8 m/s 736 mmHg 61%
    09:00 +16°C° 0 mm 8 m/s 735 mmHg 56%
    10:00 +18°C° 0 mm 8 m/s 735 mmHg 50%
    11:00 +21°C° 0 mm 8 m/s 734 mmHg 45%
    12:00 +23°C° 0 mm 8 m/s 734 mmHg 41%
    13:00 +24°C° 0 mm 8 m/s 733 mmHg 37%
    14:00 +26°C° 0 mm 8 m/s 732 mmHg 33%
    15:00 +26°C° 0 mm 7 m/s 732 mmHg 34%
    16:00 +26°C° 0 mm 7 m/s 732 mmHg 34%
    17:00 +26°C° 0 mm 6 m/s 732 mmHg 34%
    18:00 +24°C° 0 mm 6 m/s 732 mmHg 37%
    19:00 +22°C° 0 mm 6 m/s 732 mmHg 40%
    20:00 +21°C° 0 mm 6 m/s 732 mmHg 43%
    21:00 +20°C° 0 mm 6 m/s 732 mmHg 45%
    22:00 +20°C° 0 mm 7 m/s 731 mmHg 46%
    23:00 +18°C° 0 mm 7 m/s 731 mmHg 47%

    Après-demain, 17 Septembre, Mardi

    Heure Température Précipitation Vent Pression Humidité
    00:00 +18°C° 0 mm 7 m/s 731 mmHg 48%
    01:00 +17°C° 0 mm 6 m/s 730 mmHg 49%
    02:00 +16°C° 0 mm 5 m/s 730 mmHg 50%
    03:00 +16°C° 0 mm 5 m/s 730 mmHg 51%
    04:00 +15°C° 0 mm 4 m/s 730 mmHg 52%
    05:00 +15°C° 0 mm 4 m/s 730 mmHg 53%
    06:00 +16°C° 0 mm 5 m/s 730 mmHg 52%
    07:00 +17°C° 0 mm 6 m/s 730 mmHg 50%
    08:00 +17°C° 0 mm 7 m/s 730 mmHg 48%
    09:00 +21°C° 0 mm 7 m/s 730 mmHg 43%
    10:00 +24°C° 0 mm 8 m/s 730 mmHg 37%
    11:00 +27°C° 0 mm 8 m/s 729 mmHg 31%
    12:00 +29°C° 0 mm 7 m/s 728 mmHg 27%
    13:00 +30°C° 0 mm 6 m/s 728 mmHg 23%
    14:00 +33°C° 0 mm 5 m/s 727 mmHg 19%
    15:00 +32°C° 0 mm 5 m/s 727 mmHg 19%
    16:00 +32°C° 0 mm 5 m/s 727 mmHg 19%
    17:00 +32°C° 0 mm 4 m/s 727 mmHg 19%
    18:00 +29°C° 0 mm 5 m/s 727 mmHg 23%
    19:00 +27°C° 0 mm 6 m/s 728 mmHg 28%
    20:00 +24°C° 0 mm 6 m/s 728 mmHg 32%
    21:00 +23°C° 0 mm 6 m/s 728 mmHg 41%
    22:00 +22°C° 0 mm 6 m/s 729 mmHg 50%
    23:00 +21°C° 0 mm 5 m/s 729 mmHg 59%

    18 Septembre, Mercredi

    Heure Température Précipitation Vent Pression Humidité
    00:00 +20°C° 0 mm 5 m/s 729 mmHg 63%
    01:00 +19°C° 0 mm 5 m/s 729 mmHg 68%
    02:00 +17°C° 0 mm 5 m/s 728 mmHg 72%
    03:00 +16°C° 0 mm 5 m/s 729 mmHg 77%
    04:00 +15°C° 0 mm 5 m/s 729 mmHg 82%
    05:00 +14°C° 0 mm 4 m/s 729 mmHg 87%
    06:00 +15°C° 0 mm 5 m/s 729 mmHg 82%
    07:00 +15°C° 0 mm 5 m/s 729 mmHg 77%
    08:00 +16°C° 0 mm 5 m/s 729 mmHg 71%
    09:00 +19°C° 0 mm 6 m/s 729 mmHg 57%
    10:00 +21°C° 0 mm 7 m/s 729 mmHg 42%
    11:00 +23°C° 0 mm 7 m/s 729 mmHg 28%
    12:00 +24°C° 0 mm 8 m/s 728 mmHg 25%
    13:00 +26°C° 0 mm 9 m/s 727 mmHg 23%
    14:00 +27°C° 0 mm 10 m/s 727 mmHg 20%
    15:00 +27°C° 0 mm 10 m/s 726 mmHg 22%
    16:00 +26°C° 0 mm 10 m/s 726 mmHg 23%
    17:00 +26°C° 0 mm 10 m/s 726 mmHg 24%
    18:00 +23°C° 0 mm 9 m/s 727 mmHg 29%
    19:00 +22°C° 0 mm 8 m/s 727 mmHg 34%
    20:00 +20°C° 0 mm 7 m/s 728 mmHg 39%
    21:00 +18°C° 0 mm 8 m/s 727 mmHg 46%
    22:00 +17°C° 0 mm 8 m/s 727 mmHg 53%
    23:00 +16°C° 0 mm 8 m/s 727 mmHg 59%

    19 Septembre, Jeudi

    Heure Température Précipitation Vent Pression Humidité
    00:00 +15°C° 0 mm 8 m/s 727 mmHg 64%
    01:00 +14°C° 0 mm 7 m/s 727 mmHg 68%
    02:00 +12°C° 0 mm 7 m/s 727 mmHg 72%
    03:00 +12°C° 0 mm 8 m/s 727 mmHg 69%
    04:00 +11°C° 0 mm 9 m/s 728 mmHg 66%
    05:00 +9°C° 0 mm 10 m/s 728 mmHg 63%
    06:00 +9°C° 0 mm 10 m/s 729 mmHg 60%
    07:00 +9°C° 0 mm 10 m/s 730 mmHg 57%
    08:00 +8°C° 0 mm 9 m/s 731 mmHg 53%
    09:00 +10°C° 0 mm 9 m/s 731 mmHg 46%
    10:00 +12°C° 0 mm 9 m/s 731 mmHg 39%
    11:00 +13°C° 0 mm 8 m/s 731 mmHg 31%
    12:00 +15°C° 0 mm 8 m/s 731 mmHg 29%
    13:00 +15°C° 0 mm 8 m/s 731 mmHg 26%
    14:00 +16°C° 0 mm 8 m/s 730 mmHg 24%
    15:00 +16°C° 0 mm 7 m/s 731 mmHg 24%
    16:00 +15°C° 0 mm 7 m/s 731 mmHg 25%
    17:00 +15°C° 0 mm 6 m/s 731 mmHg 25%
    18:00 +14°C° 0 mm 6 m/s 732 mmHg 28%
    19:00 +12°C° 0 mm 5 m/s 733 mmHg 31%
    20:00 +10°C° 0 mm 5 m/s 734 mmHg 34%
    21:00 +10°C° 0 mm 4 m/s 734 mmHg 40%
    22:00 +8°C° 0 mm 4 m/s 734 mmHg 45%
    23:00 +9°C° 0 mm 3 m/s 734 mmHg 50%

    20 Septembre, Vendredi

    Heure Température Précipitation Vent Pression Humidité
    00:00 +8°C° 0 mm 3 m/s 734 mmHg 54%
    01:00 +7°C° 0 mm 2 m/s 734 mmHg 59%
    02:00 +7°C° 0 mm 2 m/s 734 mmHg 64%
    03:00 +6°C° 0 mm 2 m/s 734 mmHg 67%
    04:00 +6°C° 0 mm 2 m/s 734 mmHg 71%
    05:00 +5°C° 0 mm 2 m/s 734 mmHg 75%
    06:00 +5°C° 0 mm 3 m/s 735 mmHg 69%
    07:00 +7°C° 0 mm 3 m/s 735 mmHg 64%
    08:00 +8°C° 0 mm 3 m/s 736 mmHg 58%
    09:00 +10°C° 0 mm 3 m/s 735 mmHg 54%
    10:00 +11°C° 0 mm 3 m/s 735 mmHg 49%
    11:00 +12°C° 0 mm 3 m/s 735 mmHg 45%
    12:00 +13°C° 0 mm 3 m/s 735 mmHg 42%
    13:00 +13°C° 0 mm 3 m/s 734 mmHg 40%
    14:00 +14°C° 0 mm 3 m/s 734 mmHg 38%
    15:00 +14°C° 0 mm 3 m/s 734 mmHg 38%
    16:00 +14°C° 0 mm 4 m/s 734 mmHg 37%
    17:00 +14°C° 0 mm 4 m/s 734 mmHg 37%
    18:00 +13°C° 0 mm 4 m/s 735 mmHg 39%
    19:00 +12°C° 0 mm 4 m/s 735 mmHg 42%
    20:00 +11°C° 0 mm 4 m/s 736 mmHg 44%
    21:00 +11°C° 0 mm 4 m/s 736 mmHg 49%
    22:00 +10°C° 0 mm 4 m/s 736 mmHg 53%
    23:00 +8°C° 0 mm 4 m/s 736 mmHg 58%
    Voir plus